Weather History for HESH - March, 2014

Change the Weather History Date:

Monday, March 3, 2014

  Actual Average Record
Temperature  
Mean Temperature 78 °F -  
Max Temperature 87 °F - - ()
Min Temperature 69 °F - - ()
Cooling Degree Days 13    
Growing Degree Days 28 (Base 50)    
Moisture  
Dew Point 58 °F    
Average Humidity 58    
Maximum Humidity 73    
Minimum Humidity 37    
Precipitation  
Precipitation 0.00 in - - ()
Sea Level Pressure  
Sea Level Pressure 29.78 in    
Wind  
Wind Speed 4 mph ()    
Max Wind Speed 9 mph    
Max Gust Speed -    
Visibility 2.2 miles    
Events Rain    
T = Trace of Precipitation, MM = Missing Value Source: Averaged Metar Reports

Daily Weather History Graph

Daily Weather History Graph

Search for Another Location

Airport or City:

Trip Planner

Search our weather history database for the weather conditions in past years. The results will help you decide how hot, cold, wet, or windy it might be!

Date:

Astronomy

Mar. 03, 2014 Rise Set
Actual Time 6:05 AM EET 5:43 PM EET
Civil Twilight 5:41 AM EET 6:07 PM EET
Nautical Twilight 5:14 AM EET 6:34 PM EET
Astronomical Twilight 4:47 AM EET 7:01 PM EET
Moon 7:15 AM EET (3/3) 8:06 PM EET (3/3)
Length of Visible Light 12h 25m
Length of Day
11h 38m
Waxing Crescent, 6% of the Moon is Illuminated
Mar 3
Waxing Crescent
Mar 8
First Quarter
Mar 16
Full
Mar 24
Last Quarter
Mar 30
New

Hourly Weather History & Observations

Time (EET) Temp. Heat Index Dew Point Humidity Pressure Visibility Wind Dir Wind Speed Gust Speed Precip Events Conditions
12:00 AM 69.8 °F - 55.4 °F 60% 29.83 in - NW 3.5 mph - N/A   Clear
2:00 AM 69.8 °F - 53.6 °F 56% 29.80 in - Variable 2.3 mph - N/A   Clear
3:00 AM 69.8 °F - 55.4 °F 60% 29.80 in - West 2.3 mph - N/A   Clear
4:00 AM 69.8 °F - 55.4 °F 60% 29.80 in - West 2.3 mph - N/A   Clear
5:00 AM 69.8 °F - 55.4 °F 60% 29.80 in - WNW 4.6 mph - N/A   Clear
6:00 AM 69.8 °F - 55.4 °F 60% 29.80 in - NNE 4.6 mph - N/A   Clear
7:00 AM 69.8 °F - 57.2 °F 64% 29.80 in 1.9 mi North 5.8 mph - N/A   Haze
8:00 AM 71.6 °F - 59.0 °F 64% 29.83 in 1.2 mi NNE 8.1 mph - N/A   Haze
9:00 AM 73.4 °F - 59.0 °F 61% 29.83 in 0.9 mi North 9.2 mph - N/A   Haze
10:00 AM 77.0 °F - 59.0 °F 54% 29.83 in 0.5 mi NNE 8.1 mph - N/A   Haze
11:00 AM 80.6 °F 80.5 °F 55.4 °F 42% 29.83 in 0.5 mi NNE 6.9 mph - N/A   Haze
12:00 PM 84.2 °F 83.0 °F 55.4 °F 37% 29.80 in 0.7 mi Variable 2.3 mph - N/A   Haze
1:00 PM 87.8 °F 87.1 °F 59.0 °F 38% 29.77 in 1.2 mi ESE 4.6 mph - N/A   Haze
2:00 PM 84.2 °F 83.8 °F 59.0 °F 42% 29.74 in 1.9 mi ESE 5.8 mph - N/A   Haze
3:00 PM 82.4 °F 82.5 °F 59.0 °F 45% 29.71 in 1.9 mi SE 5.8 mph - N/A   Haze
4:00 PM 78.8 °F - 60.8 °F 54% 29.71 in 1.9 mi SSE 8.1 mph - N/A   Haze
5:00 PM 73.4 °F - 60.8 °F 65% 29.74 in 0.9 mi South 5.8 mph - N/A Rain Rain Showers
6:00 PM 71.6 °F - 60.8 °F 69% 29.74 in 2.5 mi South 5.8 mph - N/A Rain Rain
7:00 PM 71.6 °F - 62.6 °F 73% 29.77 in 3.7 mi South 9.2 mph - N/A Rain Rain
8:00 PM 73.4 °F - 60.8 °F 65% 29.77 in 5.0 mi SW 4.6 mph - N/A   Mostly Cloudy
9:00 PM 71.6 °F - 60.8 °F 69% 29.77 in 5.0 mi SSW 4.6 mph - N/A   Mostly Cloudy
10:00 PM 71.6 °F - 62.6 °F 73% 29.77 in 5.0 mi SSW 8.1 mph - N/A Rain Rain
11:00 PM 71.6 °F - 62.6 °F 73% 29.77 in - SE 9.2 mph - N/A   Clear